Tracking 25198 objects as of 16-Jan-2022
HD Live streaming from Space Station
objects crossing your sky now

SLOSHSAT

Track SLOSHSAT now!
SLOSHSAT is classified as:


NORAD ID: 28544
Int'l Code: 2005-005C
Perigee: 285.2 km
Apogee: 32,375.2 km
Inclination: 7.2 °
Period: 567.3 minutes
Semi major axis: 22701 km
RCS: 0.5011 m2 (medium)
Launch date: February 12, 2005
Source: European Space Agency (ESA)
Launch site: FRENCH GUIANA (FRGUI)
aabbcc
Your satellite tracking list
Your tracking list is empty




NASA's NSSDC Master Catalog

Two Line Element Set (TLE):
1 28544U 05005C   22015.63224281  .00001297  00000-0  47626-3 0  9998
2 28544   7.1536  61.1319 7067895 167.8326 228.0415  2.53821928148907
Source of the keplerian elements: AFSPC